Regional Weather Roundup
Issued by NWS Northern Indiana

Home | Current Version | Previous Version | Text Only | Print | Product List | Glossary On
Versions: 1 2 3 4 5 6 7 8 9 10 11 12 13 14 15 16 17 18 19 20 21 22 23 24 25 26 27 28 29 30 31 32 33 34 35 36 37 38 39 40 41 42 43 44 45 46 47 48 49 50
000
ASUS43 KIWX 222310
RWRIWX

KIWX WEATHER ROUNDUP
NATIONAL WEATHER SERVICE NORTHERN INDIANA
700 PM EDT WED OCT 22 2014

NOTE: "FAIR" INDICATES FEW OR NO CLOUDS BELOW 12,000 FEET WITH NO
SIGNIFICANT WEATHER AND/OR OBSTRUCTIONS TO VISIBILITY.

* THESE STATIONS ARE NOT UNDER NWS QUALITY CONTROL. THEY ALSO MAY NOT
  REPORT WEATHER SUCH AS PRECIPITATION OR FOG.

INZ001>027-230000-
NORTHERN INDIANA

CITY           SKY/WX    TMP DP  RH WIND       PRES   REMARKS
GARY*          CLEAR     48  37  66 NE8       30.30S
VALPARAISO     CLEAR     47  36  65 N5        30.28F
MICHIGAN CITY* CLEAR     45  36  70 CALM      30.29F
LAPORTE*       CLEAR     47  38  70 N5        30.29S
KNOX*          CLEAR     49  33  54 NE3       30.27S
SOUTH BEND     CLEAR     52  38  58 E6        30.29F
ELKHART*       CLEAR     46  37  71 E7        30.30S
GOSHEN         CLEAR     44  38  79 E5        30.30R
MONTICELLO*    CLEAR     53  35  50 CALM      30.26S
LOGANSPORT*    CLEAR     52  34  50 CALM      30.28S
ROCHESTER*     CLEAR     52  39  62 NE5       30.28S
WARSAW*        CLEAR     46  37  71 N5        30.29S
ANGOLA*        CLOUDY    45  34  65 CALM      30.30S
FORT WAYNE     PTCLDY    45  39  79 E6        30.31R
HUNTINGTON*    CLEAR     47  40  77 E3        30.28S
PERU/GRISSOM   CLEAR     53  41  64 E3        30.26S
MARION*        CLEAR     50  39  64 NE7       30.28S

$$
INZ028>050-230000-
CENTRAL INDIANA

CITY           SKY/WX    TMP DP  RH WIND       PRES   REMARKS
LAFAYETTE      CLEAR     53  36  52 NE5       30.26F
KOKOMO*        CLEAR     54  37  54 NE3       30.27S
MUNCIE*        CLEAR     51  41  68 E8        30.27R
INDIANAPOLIS   CLEAR     52  39  61 N5        30.25S

$$
MIZ043>046-050>051-056>058-064>065-071>073-077>080-230000-
SOUTHWEST LOWER MICHIGAN

CITY           SKY/WX    TMP DP  RH WIND       PRES   REMARKS
BATTLE CREEK   CLOUDY    46  38  73 NE5       30.30F
BENTON HARBOR  CLEAR     46  38  73 CALM      30.29F
COLDWATER*     CLOUDY    47  40  79 NE3       30.30F
HILLSDALE*     CLEAR     41  38  88 CALM      30.29S
HOLLAND        CLEAR     49  38  65 N3        30.30F
GRAND RAPIDS   PTCLDY    45  37  73 E6        30.31S
KALAMAZOO      CLEAR     47  38  71 CALM      30.30F
STURGIS*       MOCLDY    45  39  81 CALM      30.30S
THREE RIVERS*  FAIR      46  39  76 CALM      30.30F

$$
OHZ001>008-015>018-024>025-230000-
NORTHWEST OHIO

CITY           SKY/WX    TMP DP  RH WIND       PRES   REMARKS
WAUSEON*       MOCLDY    45  39  81 W6        30.29S
DEFIANCE       PTCLDY    47  39  74 N3        30.30S
FINDLAY        PTCLDY    47  40  76 W6        30.27S
TOLEDO EXPRESS CLOUDY    51  40  65 W6        30.28S
TOLEDO METCALF PTCLDY    51  39  63 CALM      30.28S
LIMA           CLOUDY    48  40  73 N3        30.28S

$$
AND FOR LAKE MICHIGAN COASTAL AND OPEN LAKE BUOY OBSERVATIONS

STATION/POSITION TEMP    WIND        PRES    VSBY  WAVE
                 AIR SEA DIR/SP/G                  HT/PER
                 (F)     (DEG/KT/KT) (MB)    (MI)  (FT/S)
CALUMET HARBOR    49      60/  5/  8 1024.4S
MICHIGAN CITY     49      20/  7/ 10   N/A
SAINT JOSEPH      49                 1025.7F
SOUTH LAKE BUOY   47 54   60/  4/  6 1026.3F         1

$$
&&



USA.gov is the U.S. government's official web portal to all federal, state and local government web resources and services.